Погода в Шахте

Россия / Новосибирская область     55°05′35″N   84°45′23″E
темп.,
°C
ветер,
м/с
пор.,
м/с
влажн.,
%
обл.,
%
осадки,
мм/ч
давл.,
гПа
погр.,
м
23 января, сб
сб2301:00−25зюз3894100 0.0 1024163
04:00−27юз3494100 0.0 102658
07:00−23юз4109489 0.1 1028376
10:00−22юз51192100 0.1 1028473
13:00−21юз5992100 0.2 1031489
16:00−18юз51087100 0.0 1029805
19:00−20юз2494100 0.1 1031103
22:00−17юз31092100 0.0 1030465
24 января, вс
вс2401:00−18зюз3996100 0.2 1031475
04:00−18ююз2496100 0.1 103089
07:00−18юз2496100 0.2 1030114
10:00−19з3698100 0.2 1031237
13:00−29зсз4694100 0.0 1037276
16:00−22з4693100 0.1 1034568
19:00−28з4897100 0.1 1037186
22:00−39з34977 0.0 104558
25 января, пн
пн2501:00−41з339616 0.0 104728
04:00−42зюз339438 0.0 104928
07:00−41зюз339543 0.0 104631
10:00−42ююз239220 0.0 105119
13:00−38з129139 0.0 1048160
16:00−37ссв119432 0.0 104819
19:00−35ююв229191 0.0 104737
22:00−34ююв2289100 0.0 104536
26 января, вт
вт2601:00−42ююв009820 0.0 104818
04:00−42вюв11971 0.0 104818
07:00−30в2392100 0.0 104087
10:00−30в229792 0.1 104034
13:00−37всв12920 0.0 1048108
16:00−36св11945 0.0 104728
19:00−29вюв339737 0.0 103822
22:00−41всв11962 0.0 105018
27 января, ср
ср2701:00−21юв359997 0.1 1034148
04:00−41в22940 0.0 105118
07:00−40вюв23930 0.0 105119
10:00−10юз71591100 0.8 1024672
13:00−33вюв348918 0.0 1050104
16:00−30вюв349210 0.0 104797
19:00−5зюз101791100 1.0 1018978
22:00−5зюз101789100 0.3 10171011